[[{"header":{"parameterUnit":"m.s-1","parameterCategory":1,"la1":30.2992,"la2":30.254,"lo1":-89.0895,"lo2":-89.0443,"dy":0.0025,"dx":0.0025,"nx":19,"ny":19,"refTime":"2026-03-22T09:00:00:Z","depth":0,"parameterNumber":2,"parameterNumberName":"U-component_of_WINDS"},"data":[0,0,0,2.5547,2.5549,2.564,2.5641,2.5758,2.5759,0,0,0,0,0,0,0,0,0,0,0,2.5518,2.5519,2.5547,2.5549,2.564,2.5641,2.5757,2.5759,0,0,0,0,0,0,0,0,0,0,0,2.5518,2.5518,2.5519,2.555,2.564,2.5641,2.5757,2.5689,0,0,0,0,0,0,0,0,0,0,2.56,2.5571,2.5518,2.5519,2.555,2.564,2.5641,2.5686,2.5693,2.5716,0,2.5733,0,2.5748,2.5766,2.5767,0,0,0,2.5551,2.5564,2.5591,2.5519,2.5551,2.564,2.56,2.569,2.5698,2.5726,2.5735,2.5739,2.575,2.5767,2.5768,2.5889,2.5889,0,0,2.5546,2.5534,2.5585,2.5596,2.558,2.5597,2.5603,2.5695,2.5705,2.5735,2.5742,2.5752,2.5768,2.5769,2.5888,2.5889,0,0,0,2.553,2.553,2.5554,2.5591,2.5608,2.5599,2.5606,2.5701,2.571,2.5743,2.5753,2.5768,2.577,2.5888,2.5888,2.59,0,0,0,2.5527,2.5521,2.5552,2.5545,2.5606,2.5655,2.561,2.5703,2.5714,2.5752,2.5768,2.5771,2.5887,2.5888,2.5899,2.5909,0,0,0,2.5513,2.5519,2.5531,2.5544,2.5583,2.5654,2.5668,2.5706,2.572,2.5767,2.5771,2.5887,2.5888,2.5898,2.5906,2.5939,0,0,0,2.5494,2.554,2.5531,2.5587,2.5582,2.5659,2.5668,2.5726,2.5767,2.5769,2.5887,2.5888,2.5897,2.5905,2.5937,2.5964,2.5974,0,0,2.5545,2.5545,2.5579,2.5574,2.565,2.5647,2.5725,2.5775,2.5791,2.5856,2.5859,2.5899,2.5906,2.5938,2.6029,2.6036,0,0,0,2.5591,2.5616,2.5638,2.5677,2.5716,2.5751,2.5791,2.581,2.5865,2.5821,2.5919,2.5924,2.5943,2.5957,2.5963,2.5982,2.5893,2.5893,2.5893,2.5646,2.5665,2.5723,2.5753,2.579,2.5831,2.5865,2.5898,2.5904,2.5928,2.5947,2.6,2.6016,2.602,2.604,2.5962,2.5962,2.5962,2.5962,2.5725,2.5763,2.5773,2.5832,2.5853,2.5904,2.5946,2.595,2.6002,2.5986,2.6004,2.5986,2.6028,2.6046,2.5963,2.5963,2.5963,2.5962,2.5962,2.5764,2.5787,2.5808,2.5868,2.5912,2.5941,2.5991,2.6007,2.6023,2.6041,2.6065,2.6065,2.6069,2.6051,2.6051,2.6051,2.6052,2.6052,2.6052,2.5798,2.5822,2.5862,2.5909,2.5937,2.5976,2.6019,2.6048,2.6085,2.6093,2.6094,2.6101,2.6028,2.601,2.6055,2.6054,2.6054,2.6054,2.6053,2.5875,2.586,2.5921,2.5949,2.6007,2.6052,2.6071,2.613,2.6156,2.6181,2.6184,2.6127,2.6129,2.6124,2.611,2.6178,2.6178,2.6178,2.6178,2.591,2.5912,2.598,2.6025,2.607,2.6095,2.6167,2.6202,2.6236,2.6254,2.6246,2.6228,2.6222,2.6228,2.6221,2.6209,2.63,2.63,2.63,2.596,2.5967,2.6024,2.6056,2.6103,2.6144,2.6212,2.6266,2.6301,2.6305,2.6269,2.6264,2.6236,2.6225,2.6229,2.6218,2.6195,0,0]},{"header":{"parameterUnit":"m.s-1","parameterCategory":1,"la1":30.2992,"la2":30.254,"lo1":-89.0895,"lo2":-89.0443,"dy":0.0025,"dx":0.0025,"nx":19,"ny":19,"refTime":"2026-03-22T09:00:00:Z","depth":0,"parameterNumber":3,"parameterNumberName":"V-component_of_WINDS"},"data":[0,0,0,-0.4996,-0.4996,-0.497,-0.497,-0.4935,-0.4935,0,0,0,0,0,0,0,0,0,0,0,-0.5003,-0.5002,-0.4996,-0.4995,-0.497,-0.497,-0.4935,-0.4935,0,0,0,0,0,0,0,0,0,0,0,-0.5003,-0.5002,-0.5002,-0.4995,-0.497,-0.497,-0.4935,-0.4955,0,0,0,0,0,0,0,0,0,0,-0.4981,-0.4985,-0.5002,-0.5002,-0.4995,-0.497,-0.497,-0.4956,-0.4954,-0.4946,0,-0.4939,0,-0.4936,-0.4932,-0.4932,0,0,0,-0.4996,-0.4987,-0.4981,-0.5002,-0.4995,-0.497,-0.4982,-0.4955,-0.4952,-0.4943,-0.4938,-0.4937,-0.4936,-0.4932,-0.4932,-0.4885,-0.4885,0,0,-0.4998,-0.4997,-0.4983,-0.498,-0.4983,-0.4982,-0.4981,-0.4953,-0.4948,-0.4938,-0.4936,-0.4935,-0.4932,-0.4932,-0.4885,-0.4885,0,0,0,-0.5001,-0.4998,-0.4993,-0.4981,-0.4977,-0.4982,-0.498,-0.4949,-0.4948,-0.4936,-0.4935,-0.4932,-0.4931,-0.4886,-0.4885,-0.4873,0,0,0,-0.5002,-0.5,-0.4994,-0.4993,-0.4977,-0.4962,-0.4976,-0.4949,-0.4946,-0.4935,-0.4932,-0.4931,-0.4886,-0.4885,-0.4874,-0.4868,0,0,0,-0.5005,-0.5,-0.4996,-0.4993,-0.4982,-0.4963,-0.496,-0.4949,-0.4946,-0.4932,-0.4931,-0.4886,-0.4885,-0.4875,-0.4869,-0.4857,0,0,0,-0.5007,-0.4985,-0.4996,-0.4971,-0.4982,-0.4955,-0.496,-0.494,-0.4927,-0.4931,-0.4886,-0.4885,-0.4875,-0.487,-0.4858,-0.4847,-0.4842,0,0,-0.4979,-0.4981,-0.4967,-0.4976,-0.4948,-0.4959,-0.4929,-0.4917,-0.4916,-0.4895,-0.4894,-0.4874,-0.4869,-0.4857,-0.4814,-0.481,0,0,0,-0.4957,-0.4947,-0.494,-0.4928,-0.4919,-0.4911,-0.4904,-0.49,-0.4883,-0.4905,-0.4865,-0.4863,-0.4855,-0.485,-0.4847,-0.4842,-0.4883,-0.4883,-0.4883,-0.4916,-0.4917,-0.4894,-0.4892,-0.488,-0.4874,-0.4865,-0.4859,-0.4862,-0.4853,-0.4847,-0.482,-0.4815,-0.4812,-0.4807,-0.484,-0.484,-0.484,-0.484,-0.4876,-0.4862,-0.4869,-0.4848,-0.4849,-0.4832,-0.4826,-0.4829,-0.4814,-0.4824,-0.4818,-0.483,-0.4808,-0.4803,-0.4839,-0.4839,-0.4839,-0.484,-0.484,-0.485,-0.4844,-0.484,-0.4825,-0.4813,-0.4811,-0.4797,-0.4798,-0.4799,-0.4793,-0.4788,-0.4788,-0.479,-0.479,-0.479,-0.479,-0.479,-0.479,-0.479,-0.4825,-0.4822,-0.481,-0.48,-0.4794,-0.4785,-0.478,-0.4774,-0.4768,-0.477,-0.477,-0.4775,-0.4805,-0.4814,-0.4788,-0.4789,-0.4789,-0.4789,-0.4789,-0.4786,-0.4796,-0.4777,-0.4771,-0.4761,-0.475,-0.4752,-0.474,-0.4735,-0.4728,-0.4735,-0.4757,-0.4759,-0.4762,-0.4769,-0.4734,-0.4734,-0.4734,-0.4734,-0.4765,-0.4767,-0.475,-0.474,-0.4731,-0.4731,-0.4712,-0.4709,-0.4706,-0.4704,-0.4709,-0.4718,-0.472,-0.4722,-0.4725,-0.4732,-0.4688,-0.4688,-0.4688,-0.4742,-0.4743,-0.4726,-0.4725,-0.4717,-0.4711,-0.4694,-0.4683,-0.4682,-0.4686,-0.4702,-0.4704,-0.4719,-0.4723,-0.4727,-0.4733,-0.4745,0,0]}]]